| time (UTC) | temp F | wind direction | speed MPH | gust MPH | rain 1hr in | rain 24hr in | rain mn in | humidity % | barometer mb |
| 20260508231534 | 77 | 223 | 4.0 | 8.0 | 0.00 | 0.02 | 0.02 | 69 | 1007.5 |
| 20260508230033 | 77 | 144 | 3.0 | 8.0 | 0.00 | 0.02 | 0.02 | 68 | 1007.4 |
| 20260508224531 | 77 | 209 | 4.0 | 9.0 | 0.00 | 0.03 | 0.02 | 68 | 1007.3 |
| 20260508223039 | 77 | 219 | 3.0 | 7.0 | 0.00 | 0.03 | 0.02 | 69 | 1007.5 |
| 20260508221527 | 77 | 196 | 4.0 | 11.0 | 0.00 | 0.03 | 0.02 | 69 | 1007.7 |
| 20260508220025 | 76 | 233 | 5.0 | 10.0 | 0.00 | 0.03 | 0.02 | 70 | 1007.9 |
| 20260508214522 | 76 | 170 | 4.0 | 9.0 | 0.00 | 0.03 | 0.02 | 72 | 1008.1 |
| 20260508213030 | 75 | 213 | 3.0 | 7.0 | 0.00 | 0.03 | 0.02 | 74 | 1008.3 |
| 20260508211519 | 75 | 230 | 3.0 | 9.0 | 0.00 | 0.03 | 0.02 | 74 | 1008.4 |
| 20260508210016 | 74 | 205 | 4.0 | 11.0 | 0.00 | 0.03 | 0.02 | 75 | 1008.8 |
| 20260508204520 | 73 | 200 | 3.0 | 13.0 | 0.00 | 0.05 | 0.02 | 78 | 1009.0 |
| 20260508203009 | 73 | 218 | 4.0 | 7.0 | 0.00 | 0.05 | 0.02 | 78 | 1009.5 |
| 20260508201508 | 73 | 238 | 4.0 | 11.0 | 0.00 | 0.05 | 0.02 | 78 | 1009.7 |
| 20260508200004 | 72 | 237 | 5.0 | 10.0 | 0.00 | 0.05 | 0.02 | 79 | 1010.0 |
| 20260508194501 | 71 | 259 | 2.0 | 4.0 | 0.00 | 0.22 | 0.02 | 80 | 1010.2 |
| 20260508193001 | 71 | 259 | 1.0 | 6.0 | 0.00 | 0.22 | 0.02 | 80 | 1010.3 |
| 20260508191602 | 71 | 259 | 4.0 | 7.0 | 0.00 | 0.22 | 0.02 | 80 | 1010.4 |
| 20260508190058 | 71 | 256 | 2.0 | 6.0 | 0.00 | 0.22 | 0.02 | 81 | 1010.5 |
| 20260508184608 | 71 | 245 | 3.0 | 8.0 | 0.00 | 0.22 | 0.02 | 81 | 1010.7 |
| 20260508183055 | 71 | 224 | 3.0 | 7.0 | 0.00 | 0.22 | 0.02 | 80 | 1010.6 |
| 20260508181600 | 71 | 223 | 3.0 | 7.0 | 0.00 | 0.22 | 0.02 | 80 | 1011.0 |
| 20260508180050 | 71 | 218 | 3.0 | 8.0 | 0.00 | 0.22 | 0.02 | 81 | 1011.2 |
| 20260508174547 | 71 | 190 | 2.0 | 6.0 | 0.00 | 0.22 | 0.02 | 81 | 1011.5 |
| 20260508173046 | 70 | 157 | 2.0 | 6.0 | 0.00 | 0.22 | 0.02 | 81 | 1011.6 |
| 20260508171545 | 70 | 149 | 0.0 | 2.0 | 0.00 | 0.22 | 0.02 | 82 | 1011.8 |
| 20260508170042 | 69 | 149 | 0.0 | 3.0 | 0.00 | 0.22 | 0.02 | 81 | 1011.9 |
| 20260508164539 | 69 | 149 | 2.0 | 3.0 | 0.00 | 0.22 | 0.02 | 82 | 1012.0 |
| 20260508163045 | 68 | 148 | 1.0 | 5.0 | 0.00 | 0.22 | 0.02 | 82 | 1012.3 |
| 20260508161533 | 67 | 138 | 4.0 | 5.0 | 0.00 | 0.22 | 0.02 | 83 | 1012.5 |
| 20260508160053 | 67 | 101 | 2.0 | 6.0 | 0.00 | 0.22 | 0.02 | 83 | 1012.7 |
| 20260508154529 | 67 | 60 | 1.0 | 4.0 | 0.00 | 0.22 | 0.02 | 84 | 1012.7 |
| 20260508153028 | 65 | 59 | 1.0 | 3.0 | 0.00 | 0.22 | 0.02 | 87 | 1012.8 |
| 20260508151521 | 63 | 55 | 0.0 | 5.0 | 0.00 | 0.22 | 0.02 | 88 | 1013.1 |
| 20260508150021 | 62 | 108 | 1.0 | 4.0 | 0.00 | 0.22 | 0.02 | 90 | 1013.1 |
| 20260508144514 | 61 | 108 | 1.0 | 4.0 | 0.00 | 0.22 | 0.02 | 90 | 1013.4 |
| 20260508143013 | 60 | 109 | 1.0 | 3.0 | 0.00 | 0.22 | 0.02 | 91 | 1013.6 |
| 20260508141510 | 60 | 109 | 1.0 | 3.0 | 0.00 | 0.22 | 0.02 | 92 | 1013.9 |
| 20260508140010 | 59 | 110 | 1.0 | 4.0 | 0.00 | 0.22 | 0.02 | 92 | 1014.1 |
| 20260508134510 | 59 | 110 | 2.0 | 6.0 | 0.00 | 0.22 | 0.02 | 92 | 1014.0 |
| 20260508133011 | 59 | 101 | 2.0 | 4.0 | 0.00 | 0.22 | 0.02 | 93 | 1014.1 |
| 20260508131503 | 58 | 97 | 0.0 | 4.0 | 0.00 | 0.22 | 0.02 | 93 | 1013.8 |
| 20260508130001 | 58 | 96 | 2.0 | 6.0 | 0.00 | 0.22 | 0.02 | 93 | 1013.5 |
| 20260508124558 | 58 | 95 | 1.0 | 3.0 | 0.00 | 0.22 | 0.02 | 93 | 1013.6 |
| 20260508123057 | 57 | 96 | 0.0 | 3.0 | 0.00 | 0.22 | 0.02 | 93 | 1013.7 |
| 20260508121607 | 57 | 145 | 1.0 | 3.0 | 0.00 | 0.22 | 0.02 | 93 | 1013.8 |
| 20260508120056 | 57 | 145 | 0.0 | 2.0 | 0.00 | 0.22 | 0.02 | 93 | 1013.9 |
| 20260508114556 | 57 | 145 | 0.0 | 2.0 | 0.00 | 0.22 | 0.02 | 93 | 1014.0 |
| 20260508113055 | 57 | 145 | 1.0 | 3.0 | 0.00 | 0.22 | 0.02 | 93 | 1014.0 |
| 20260508111554 | 57 | 145 | 1.0 | 3.0 | 0.00 | 0.22 | 0.02 | 92 | 1014.0 |
| 20260508104552 | 57 | 145 | 0.0 | 3.0 | 0.00 | 0.22 | 0.02 | 93 | 1014.0 |
| 20260508103054 | 57 | 145 | 0.0 | 2.0 | 0.00 | 0.22 | 0.02 | 93 | 1013.8 |
| 20260508101550 | 56 | 145 | 0.0 | 2.0 | 0.00 | 0.22 | 0.02 | 92 | 1013.7 |
| 20260508100050 | 56 | 145 | 0.0 | 1.0 | 0.00 | 0.22 | 0.02 | 92 | 1013.8 |
| 20260508094603 | 56 | 146 | 0.0 | 4.0 | 0.00 | 0.22 | 0.02 | 92 | 1013.6 |
| 20260508093047 | 57 | 145 | 0.0 | 2.0 | 0.00 | 0.22 | 0.02 | 92 | 1013.7 |
| 20260508091545 | 57 | 145 | 0.0 | 2.0 | 0.00 | 0.22 | 0.02 | 92 | 1013.7 |
| 20260508090045 | 57 | 145 | 0.0 | 1.0 | 0.01 | 0.22 | 0.02 | 92 | 1013.6 |
| 20260508084542 | 57 | 146 | 0.0 | 2.0 | 0.02 | 0.22 | 0.02 | 92 | 1014.1 |
| 20260508083117 | 57 | 146 | 0.0 | 2.0 | 0.02 | 0.22 | 0.02 | 92 | 1014.1 |
| 20260508081544 | 57 | 145 | 0.0 | 3.0 | 0.02 | 0.22 | 0.02 | 92 | 1014.3 |
| 20260508080041 | 56 | 145 | 2.0 | 7.0 | 0.01 | 0.21 | 0.01 | 91 | 1014.4 |
| 20260508074537 | 56 | 141 | 2.0 | 4.0 | 0.00 | 0.20 | 0.00 | 91 | 1014.7 |
| 20260508073036 | 57 | 141 | 2.0 | 7.0 | 0.00 | 0.20 | 0.00 | 90 | 1014.5 |
| 20260508071535 | 57 | 138 | 2.0 | 8.0 | 0.00 | 0.20 | 0.00 | 90 | 1014.8 |
| 20260508070030 | 57 | 111 | 4.0 | 7.0 | 0.00 | 0.20 | 0.00 | 89 | 1015.1 |
| 20260508064544 | 57 | 98 | 2.0 | 6.0 | 0.00 | 0.20 | 0.00 | 89 | 1015.3 |
| 20260508063033 | 57 | 101 | 4.0 | 7.0 | 0.00 | 0.20 | 0.00 | 89 | 1015.5 |
| 20260508061531 | 57 | 115 | 3.0 | 6.0 | 0.00 | 0.20 | 0.00 | 89 | 1015.6 |
| 20260508060025 | 57 | 117 | 1.0 | 6.0 | 0.00 | 0.20 | 0.00 | 89 | 1015.5 |
| 20260508054526 | 57 | 127 | 0.0 | 2.0 | 0.00 | 0.20 | 0.00 | 89 | 1015.4 |
| 20260508053025 | 57 | 127 | 0.0 | 3.0 | 0.00 | 0.20 | 0.00 | 89 | 1015.2 |
| 20260508051524 | 57 | 127 | 0.0 | 2.0 | 0.00 | 0.20 | 0.00 | 89 | 1015.2 |
| 20260508050021 | 57 | 127 | 0.0 | 4.0 | 0.00 | 0.20 | 0.00 | 89 | 1015.3 |
| 20260508044520 | 57 | 127 | 1.0 | 3.0 | 0.00 | 0.20 | 0.20 | 89 | 1015.4 |
| 20260508043019 | 56 | 127 | 1.0 | 3.0 | 0.00 | 0.20 | 0.20 | 89 | 1016.0 |
| 20260508041519 | 56 | 127 | 1.0 | 3.0 | 0.00 | 0.20 | 0.20 | 89 | 1015.8 |
| 20260508040018 | 56 | 127 | 1.0 | 3.0 | 0.00 | 0.20 | 0.20 | 89 | 1016.0 |
| 20260508034518 | 56 | 127 | 1.0 | 2.0 | 0.00 | 0.20 | 0.20 | 89 | 1016.1 |
| 20260508033019 | 56 | 127 | 0.0 | 3.0 | 0.00 | 0.20 | 0.20 | 89 | 1016.0 |
| 20260508031518 | 56 | 127 | 1.0 | 4.0 | 0.00 | 0.20 | 0.20 | 89 | 1015.8 |
| 20260508030017 | 56 | 127 | 1.0 | 3.0 | 0.00 | 0.20 | 0.20 | 89 | 1016.0 |
| 20260508024524 | 56 | 127 | 2.0 | 4.0 | 0.00 | 0.20 | 0.20 | 89 | 1016.0 |
| 20260508023020 | 56 | 127 | 1.0 | 3.0 | 0.00 | 0.20 | 0.20 | 89 | 1016.0 |
| 20260508021515 | 56 | 127 | 1.0 | 3.0 | 0.00 | 0.20 | 0.20 | 89 | 1015.7 |
| 20260508020016 | 56 | 127 | 0.0 | 2.0 | 0.00 | 0.20 | 0.20 | 89 | 1015.6 |
| 20260508014514 | 56 | 127 | 1.0 | 4.0 | 0.00 | 0.20 | 0.20 | 89 | 1015.4 |
| 20260508013015 | 56 | 127 | 1.0 | 3.0 | 0.00 | 0.20 | 0.20 | 88 | 1015.2 |
| 20260508011512 | 56 | 127 | 1.0 | 4.0 | 0.00 | 0.20 | 0.20 | 88 | 1014.8 |
| 20260508010010 | 56 | 127 | 2.0 | 4.0 | 0.00 | 0.20 | 0.20 | 88 | 1015.1 |
| 20260508004510 | 56 | 127 | 2.0 | 4.0 | 0.00 | 0.20 | 0.20 | 88 | 1015.2 |
| 20260508003009 | 56 | 127 | 1.0 | 7.0 | 0.00 | 0.20 | 0.20 | 88 | 1015.0 |
| 20260508001509 | 56 | 128 | 2.0 | 5.0 | 0.00 | 0.20 | 0.20 | 89 | 1015.0 |
| 20260508000009 | 56 | 128 | 3.0 | 7.0 | 0.00 | 0.20 | 0.20 | 89 | 1015.2 |
| 20260507234507 | 56 | 129 | 2.0 | 7.0 | 0.00 | 0.20 | 0.20 | 89 | 1015.5 |
| 20260507233006 | 56 | 128 | 3.0 | 5.0 | 0.00 | 0.20 | 0.20 | 90 | 1015.5 |